Hourly Weather Alpirsbach

Today, 11 May, Tuesday

Time Temperature Precipitation Wind Pressure Humidity
00:00 +10°C° 0.5 mm 1 mps 703 mmHg 98%
01:00 +10°C° 0 mm 1 mps 703 mmHg 98%
02:00 +10°C° 0.5 mm 1 mps 703 mmHg 98%
03:00 +10°C° 0.5 mm 1 mps 702 mmHg 98%
04:00 +10°C° 0.5 mm 1 mps 702 mmHg 98%
05:00 +10°C° 0.3 mm 1 mps 702 mmHg 98%
06:00 +10°C° 0.3 mm 1 mps 702 mmHg 98%
07:00 +10°C° 0 mm 1 mps 702 mmHg 98%
08:00 +10°C° 1.1 mm 1 mps 702 mmHg 98%
09:00 +10°C° 1.1 mm 1 mps 702 mmHg 98%
10:00 +11°C° 1.1 mm 1 mps 702 mmHg 98%
11:00 +10°C° 1.8 mm 2 mps 702 mmHg 97%
12:00 +10°C° 1.8 mm 2 mps 702 mmHg 96%
13:00 +10°C° 0 mm 2 mps 702 mmHg 96%
14:00 +10°C° 0.6 mm 2 mps 702 mmHg 95%
15:00 +10°C° 0.6 mm 2 mps 702 mmHg 94%
16:00 +10°C° 0.6 mm 2 mps 702 mmHg 93%
17:00 +10°C° 0.2 mm 2 mps 702 mmHg 94%
18:00 +10°C° 0.2 mm 2 mps 703 mmHg 94%
19:00 +10°C° 0.2 mm 2 mps 703 mmHg 94%
20:00 +9°C° 0.4 mm 2 mps 703 mmHg 94%
21:00 +9°C° 0.4 mm 2 mps 704 mmHg 95%
22:00 +9°C° 0.4 mm 3 mps 704 mmHg 96%
23:00 +8°C° 0.5 mm 3 mps 704 mmHg 96%

Tomorrow, 12 May, Wednesday

Time Temperature Precipitation Wind Pressure Humidity
00:00 +8°C° 0.5 mm 3 mps 705 mmHg 96%
01:00 +8°C° 0.5 mm 3 mps 705 mmHg 96%
02:00 +8°C° 0.2 mm 3 mps 705 mmHg 96%
03:00 +7°C° 0.2 mm 3 mps 705 mmHg 95%
04:00 +7°C° 0.2 mm 3 mps 705 mmHg 94%
05:00 +7°C° 0 mm 3 mps 705 mmHg 93%
06:00 +7°C° 0 mm 3 mps 705 mmHg 92%
07:00 +7°C° 0 mm 3 mps 706 mmHg 91%
08:00 +8°C° 0 mm 2 mps 706 mmHg 84%
09:00 +9°C° 0 mm 2 mps 705 mmHg 77%
10:00 +10°C° 0 mm 2 mps 705 mmHg 69%
11:00 +12°C° 0.1 mm 2 mps 705 mmHg 66%
12:00 +12°C° 0.1 mm 2 mps 705 mmHg 63%
13:00 +13°C° 0.1 mm 2 mps 705 mmHg 60%
14:00 +13°C° 0.1 mm 2 mps 705 mmHg 61%
15:00 +13°C° 0.1 mm 2 mps 704 mmHg 63%
16:00 +13°C° 0.1 mm 1 mps 704 mmHg 64%
17:00 +12°C° 0.1 mm 1 mps 704 mmHg 70%
18:00 +11°C° 0.1 mm 1 mps 704 mmHg 76%
19:00 +11°C° 0.1 mm 1 mps 704 mmHg 81%
20:00 +10°C° 0 mm 1 mps 704 mmHg 84%
21:00 +9°C° 0 mm 1 mps 704 mmHg 87%
22:00 +7°C° 0 mm 1 mps 704 mmHg 90%
23:00 +7°C° 0 mm 1 mps 703 mmHg 90%

Day after tomorrow, 13 May, Thursday

Time Temperature Precipitation Wind Pressure Humidity
00:00 +7°C° 0 mm 1 mps 703 mmHg 90%
01:00 +7°C° 0 mm 1 mps 703 mmHg 91%
02:00 +6°C° 0 mm 1 mps 703 mmHg 91%
03:00 +6°C° 0 mm 1 mps 702 mmHg 92%
04:00 +6°C° 0 mm 1 mps 702 mmHg 92%
05:00 +7°C° 0 mm 1 mps 702 mmHg 89%
06:00 +8°C° 0 mm 1 mps 702 mmHg 86%
07:00 +9°C° 0 mm 1 mps 702 mmHg 83%
08:00 +9°C° 0.1 mm 2 mps 702 mmHg 79%
09:00 +10°C° 0.1 mm 3 mps 702 mmHg 75%
10:00 +11°C° 0.1 mm 3 mps 702 mmHg 71%
11:00 +11°C° 0.4 mm 4 mps 702 mmHg 73%
12:00 +11°C° 0.4 mm 4 mps 702 mmHg 76%
13:00 +11°C° 0.4 mm 4 mps 702 mmHg 79%
14:00 +10°C° 0.2 mm 4 mps 702 mmHg 82%
15:00 +9°C° 0.2 mm 3 mps 702 mmHg 85%
16:00 +8°C° 0.2 mm 3 mps 702 mmHg 88%
17:00 +8°C° 0 mm 3 mps 702 mmHg 85%
18:00 +8°C° 0 mm 2 mps 702 mmHg 83%
19:00 +9°C° 0 mm 1 mps 702 mmHg 80%
20:00 +8°C° 0 mm 1 mps 702 mmHg 83%
21:00 +7°C° 0 mm 1 mps 702 mmHg 86%
22:00 +6°C° 0 mm 1 mps 702 mmHg 89%
23:00 +6°C° 0 mm 1 mps 702 mmHg 90%

14 May, Friday

Time Temperature Precipitation Wind Pressure Humidity
00:00 +6°C° 0 mm 1 mps 702 mmHg 91%
01:00 +6°C° 0 mm 1 mps 702 mmHg 93%
02:00 +5°C° 0 mm 1 mps 702 mmHg 93%
03:00 +5°C° 0 mm 1 mps 702 mmHg 94%
04:00 +4°C° 0 mm 1 mps 702 mmHg 95%
05:00 +6°C° 0 mm 1 mps 702 mmHg 91%
06:00 +7°C° 0 mm 1 mps 703 mmHg 88%
07:00 +8°C° 0 mm 1 mps 703 mmHg 85%
08:00 +8°C° 0 mm 2 mps 703 mmHg 79%
09:00 +10°C° 0 mm 2 mps 703 mmHg 72%
10:00 +11°C° 0 mm 3 mps 703 mmHg 66%
11:00 +12°C° 0.3 mm 3 mps 703 mmHg 65%
12:00 +12°C° 0.3 mm 3 mps 703 mmHg 63%
13:00 +13°C° 0.3 mm 3 mps 703 mmHg 62%
14:00 +13°C° 0.4 mm 3 mps 703 mmHg 65%
15:00 +12°C° 0.4 mm 3 mps 703 mmHg 68%
16:00 +12°C° 0.4 mm 3 mps 703 mmHg 71%
17:00 +12°C° 0.4 mm 2 mps 703 mmHg 77%
18:00 +10°C° 0.4 mm 2 mps 703 mmHg 83%
19:00 +10°C° 0.4 mm 1 mps 704 mmHg 89%
20:00 +9°C° 0 mm 1 mps 704 mmHg 90%
21:00 +8°C° 0 mm 1 mps 704 mmHg 92%
22:00 +6°C° 0 mm 1 mps 705 mmHg 93%
23:00 +6°C° 0 mm 1 mps 705 mmHg 94%

15 May, Saturday

Time Temperature Precipitation Wind Pressure Humidity
00:00 +6°C° 0 mm 1 mps 705 mmHg 94%
01:00 +6°C° 0 mm 1 mps 705 mmHg 94%
02:00 +5°C° 0 mm 1 mps 705 mmHg 94%
03:00 +5°C° 0 mm 1 mps 705 mmHg 95%
04:00 +4°C° 0 mm 2 mps 705 mmHg 95%
05:00 +5°C° 0 mm 2 mps 705 mmHg 93%
06:00 +6°C° 0 mm 2 mps 705 mmHg 91%
07:00 +7°C° 0 mm 2 mps 705 mmHg 88%
08:00 +9°C° 0.2 mm 2 mps 705 mmHg 83%
09:00 +10°C° 0.2 mm 3 mps 705 mmHg 77%
10:00 +11°C° 0.2 mm 4 mps 705 mmHg 72%
11:00 +12°C° 0.1 mm 4 mps 704 mmHg 66%
12:00 +13°C° 0.1 mm 4 mps 704 mmHg 60%
13:00 +14°C° 0.1 mm 4 mps 704 mmHg 54%
14:00 +13°C° 0.2 mm 4 mps 703 mmHg 60%
15:00 +12°C° 0.2 mm 4 mps 703 mmHg 65%
16:00 +12°C° 0.2 mm 3 mps 703 mmHg 71%
17:00 +11°C° 0.4 mm 3 mps 702 mmHg 77%
18:00 +9°C° 0.4 mm 3 mps 702 mmHg 84%
19:00 +8°C° 0.4 mm 2 mps 702 mmHg 91%
20:00 +8°C° 1.2 mm 2 mps 702 mmHg 93%
21:00 +8°C° 1.2 mm 3 mps 702 mmHg 95%
22:00 +7°C° 1.2 mm 3 mps 701 mmHg 96%
23:00 +8°C° 0.5 mm 3 mps 702 mmHg 96%

16 May, Sunday

Time Temperature Precipitation Wind Pressure Humidity
00:00 +8°C° 0.5 mm 3 mps 702 mmHg 96%
01:00 +7°C° 0.5 mm 4 mps 702 mmHg 96%
02:00 +7°C° 0.5 mm 4 mps 702 mmHg 96%
03:00 +7°C° 0.5 mm 4 mps 702 mmHg 96%
04:00 +7°C° 0.5 mm 4 mps 702 mmHg 96%
05:00 +7°C° 0.7 mm 4 mps 703 mmHg 95%
06:00 +7°C° 0.7 mm 4 mps 703 mmHg 95%
07:00 +7°C° 0.7 mm 4 mps 703 mmHg 94%
08:00 +8°C° 0.1 mm 5 mps 704 mmHg 87%
09:00 +9°C° 0.1 mm 6 mps 704 mmHg 79%
10:00 +9°C° 0.1 mm 7 mps 704 mmHg 72%
11:00 +10°C° 0 mm 7 mps 704 mmHg 65%
12:00 +11°C° 0 mm 7 mps 704 mmHg 58%
13:00 +12°C° 0 mm 7 mps 704 mmHg 51%
14:00 +14°C° 0 mm 6 mps 704 mmHg 52%
15:00 +14°C° 0 mm 6 mps 703 mmHg 54%
16:00 +14°C° 0 mm 6 mps 703 mmHg 56%
17:00 +13°C° 0.1 mm 5 mps 703 mmHg 61%
18:00 +12°C° 0.1 mm 4 mps 703 mmHg 67%
19:00 +11°C° 0.1 mm 3 mps 702 mmHg 73%
20:00 +10°C° 0.3 mm 3 mps 702 mmHg 80%
21:00 +10°C° 0.3 mm 3 mps 702 mmHg 86%
22:00 +9°C° 0.3 mm 3 mps 702 mmHg 93%
23:00 +9°C° 1.1 mm 3 mps 702 mmHg 94%
Show more

We Need Your Consent

Meteoprog and our Service Providers may store and access personal data such as cookies, device identifiers or other similar technologies on your device and process such data to personalise content and ads, as well as provide social media features and to analyse the traffic.

  • Store and/or access information on your device

    Cookies, device identifiers or other information can be stored or accessed on your device for the purposes indicated above.

  • Personalised ads and content, ad and content measurement, audience insights, and products development

    Ads and content can be personalised based on a profile. More data can be added to better personalise ads and content. Ad and content performance can be measured. Insights about the audience who saw the ads and content can be derived. Such data can be used to develop or improve user’s experience, systems and software.

By clicking ‘I Agree’ you will allow the use of indicated cookies, device identifiers, web beacons or other similar technologies. Your settings can be changed in the browser on your device.

For certain purposes, legitimate interests may be relied on, rather than consent. You can read more about this in our Privacy and Cookie Policy.